HAZ766 NZAA-ZSPD

Flight info

Callsign HAZ766
Flight time N/A
Altitude 34000
Route DUGAN A597 LEKAX/N0497F360 A597 KAKOP/N0493F380 A597 UNZ G339 SHAWS/N0486F400 G339 AGIKA Z41 POTET Y592 ONIKU A593 LAMEN/K0904F400 A593 DUMET DUM92A
Aircraft A359/H-SDE2E3GHIJ3J4J5LM1ORWXY/LB1D1

Departure

Time 2026-05-07 16:31
Airport Auckland International Airport (NZAA)

Arrival

Time N/A
Airport Shanghai Pudong International Airport (ZSPD)
Time Latitude Longitude Altitude Speed Heading
2026-05-07 16:04 -37.00947 174.77753 32 ft 0 kts 341°
2026-05-07 16:21 -37.00949 174.77754 32 ft 2 kts 341°
2026-05-07 16:21 -37.00965 174.77761 32 ft 4 kts 341°
2026-05-07 16:22 -37.00991 174.77773 30 ft 4 kts 341°
2026-05-07 16:22 -37.01016 174.77782 30 ft 4 kts 341°
2026-05-07 16:22 -37.01035 174.77794 31 ft 4 kts 314°
2026-05-07 16:22 -37.01045 174.77811 32 ft 4 kts 268°
2026-05-07 16:23 -37.01040 174.77840 28 ft 4 kts 249°
2026-05-07 16:23 -37.01033 174.77865 31 ft 1 kts 251°
2026-05-07 16:23 -37.01032 174.77870 30 ft 0 kts 251°
2026-05-07 16:27 -37.01034 174.77861 31 ft 3 kts 252°
2026-05-07 16:27 -37.01046 174.77817 30 ft 8 kts 251°
2026-05-07 16:28 -37.01072 174.77731 32 ft 13 kts 237°
2026-05-07 16:28 -37.01158 174.77721 32 ft 15 kts 161°
2026-05-07 16:28 -37.01260 174.77714 32 ft 16 kts 231°
2026-05-07 16:28 -37.01302 174.77575 32 ft 19 kts 251°
2026-05-07 16:29 -37.01350 174.77400 32 ft 23 kts 251°
2026-05-07 16:29 -37.01399 174.77223 32 ft 21 kts 251°
2026-05-07 16:29 -37.01464 174.77109 32 ft 14 kts 200°
2026-05-07 16:29 -37.01572 174.77086 32 ft 17 kts 170°
2026-05-07 16:30 -37.01596 174.77210 32 ft 17 kts 71°
2026-05-07 16:30 -37.01523 174.77475 32 ft 61 kts 71°
2026-05-07 16:30 -37.01314 174.78228 32 ft 121 kts 71°
2026-05-07 16:30 -37.00980 174.79433 106 ft 165 kts 68°
2026-05-07 16:31 -37.00606 174.80784 728 ft 161 kts 68°
2026-05-07 16:31 -37.00243 174.82099 1389 ft 159 kts 66°
2026-05-07 16:31 -36.99893 174.83395 2021 ft 156 kts 65°
2026-05-07 16:31 -36.99535 174.84685 2366 ft 158 kts 65°
2026-05-07 16:32 -36.99168 174.85998 2702 ft 162 kts 64°
2026-05-07 16:32 -36.98788 174.87345 3034 ft 165 kts 64°
2026-05-07 16:32 -36.98396 174.88743 3268 ft 177 kts 65°
2026-05-07 16:32 -36.97977 174.90231 3473 ft 191 kts 65°
2026-05-07 16:33 -36.97522 174.91856 3677 ft 206 kts 65°
2026-05-07 16:33 -36.97027 174.93617 3822 ft 225 kts 66°
2026-05-07 16:33 -36.96493 174.95535 4045 ft 242 kts 66°
2026-05-07 16:33 -36.95931 174.97574 4391 ft 253 kts 67°
2026-05-07 16:34 -36.95282 174.99643 4842 ft 257 kts 57°
2026-05-07 16:34 -36.94040 175.01199 5308 ft 256 kts 25°
2026-05-07 16:34 -36.92315 175.01592 5845 ft 256 kts 352°
2026-05-07 16:34 -36.90705 175.00693 6438 ft 259 kts 322°
2026-05-07 16:35 -36.89403 174.99129 7056 ft 261 kts 315°
2026-05-07 16:35 -36.88128 174.97499 7660 ft 263 kts 316°
2026-05-07 16:35 -36.86810 174.95891 8278 ft 266 kts 317°
2026-05-07 16:35 -36.85448 174.94303 8892 ft 269 kts 319°
2026-05-07 16:36 -36.84074 174.92749 9505 ft 271 kts 319°
2026-05-07 16:36 -36.82683 174.91147 10131 ft 274 kts 319°
2026-05-07 16:36 -36.81263 174.89483 10450 ft 287 kts 318°
2026-05-07 16:36 -36.79767 174.87726 10708 ft 302 kts 318°
2026-05-07 16:37 -36.78203 174.85889 10996 ft 316 kts 318°
2026-05-07 16:37 -36.76568 174.83971 11265 ft 329 kts 318°
2026-05-07 16:37 -36.74867 174.81977 11530 ft 342 kts 317°
2026-05-07 16:37 -36.73104 174.79912 11786 ft 354 kts 317°
2026-05-07 16:38 -36.71281 174.77778 12036 ft 365 kts 317°
2026-05-07 16:38 -36.69407 174.75587 12352 ft 373 kts 317°
2026-05-07 16:38 -36.67508 174.73367 12808 ft 377 kts 317°
2026-05-07 16:38 -36.65586 174.71122 13262 ft 380 kts 317°
2026-05-07 16:39 -36.63646 174.68858 13734 ft 383 kts 317°
2026-05-07 16:39 -36.61693 174.66581 14164 ft 386 kts 317°
2026-05-07 16:39 -36.59726 174.64288 14576 ft 389 kts 317°
2026-05-07 16:39 -36.57744 174.61981 14983 ft 392 kts 317°
2026-05-07 16:40 -36.55744 174.59654 15408 ft 394 kts 317°
2026-05-07 16:40 -36.53737 174.57321 15817 ft 396 kts 317°
2026-05-07 16:40 -36.51715 174.54973 16230 ft 399 kts 317°
2026-05-07 16:40 -36.49656 174.52641 16626 ft 402 kts 320°
2026-05-07 16:41 -36.47391 174.50589 17025 ft 405 kts 328°
2026-05-07 16:41 -36.44868 174.49022 17447 ft 408 kts 337°
2026-05-07 16:41 -36.42197 174.47786 17850 ft 411 kts 339°
2026-05-07 16:41 -36.39491 174.46610 18250 ft 414 kts 339°
2026-05-07 16:42 -36.36761 174.45424 18618 ft 417 kts 339°
2026-05-07 16:42 -36.34022 174.44226 18966 ft 419 kts 339°
2026-05-07 16:42 -36.31272 174.43019 19336 ft 422 kts 339°
2026-05-07 16:42 -36.28485 174.41794 19705 ft 424 kts 339°
2026-05-07 16:43 -36.25694 174.40565 20074 ft 427 kts 339°
2026-05-07 16:43 -36.22886 174.39330 20444 ft 430 kts 339°
2026-05-07 16:43 -36.20097 174.38102 20807 ft 432 kts 339°
2026-05-07 16:43 -36.17257 174.36854 21186 ft 435 kts 339°
2026-05-07 16:44 -36.14398 174.35597 21555 ft 437 kts 339°
2026-05-07 16:44 -36.11525 174.34336 21929 ft 440 kts 339°
2026-05-07 16:44 -36.08631 174.33066 22316 ft 442 kts 339°
2026-05-07 16:44 -36.05719 174.31789 22669 ft 445 kts 339°
2026-05-07 16:45 -36.02791 174.30507 23045 ft 448 kts 339°
2026-05-07 16:45 -35.99844 174.29217 23430 ft 451 kts 339°
2026-05-07 16:45 -35.96877 174.27919 23803 ft 454 kts 339°
2026-05-07 16:45 -35.93892 174.26614 24116 ft 456 kts 339°
2026-05-07 16:46 -35.90897 174.25306 24454 ft 459 kts 339°
2026-05-07 16:46 -35.87881 174.23990 24798 ft 461 kts 339°
2026-05-07 16:46 -35.84849 174.22668 25149 ft 463 kts 339°
2026-05-07 16:46 -35.81803 174.21341 25498 ft 465 kts 339°
2026-05-07 16:47 -35.78742 174.20009 25835 ft 468 kts 339°
2026-05-07 16:47 -35.75667 174.18671 26174 ft 470 kts 339°
2026-05-07 16:47 -35.72576 174.17328 26517 ft 472 kts 339°
2026-05-07 16:47 -35.69470 174.15979 26839 ft 475 kts 339°
2026-05-07 16:48 -35.66347 174.14624 27172 ft 477 kts 339°
2026-05-07 16:48 -35.63218 174.13267 27490 ft 479 kts 339°
2026-05-07 16:48 -35.60072 174.11905 27809 ft 481 kts 339°
2026-05-07 16:48 -35.56907 174.10535 28112 ft 483 kts 339°
2026-05-07 16:49 -35.53724 174.09159 28400 ft 485 kts 338°
2026-05-07 16:49 -35.50529 174.07778 28685 ft 487 kts 338°
2026-05-07 16:49 -35.47320 174.06393 28959 ft 490 kts 338°
2026-05-07 16:49 -35.44103 174.05005 29216 ft 492 kts 338°
2026-05-07 16:50 -35.40872 174.03612 29585 ft 491 kts 338°
2026-05-07 16:50 -35.37650 174.02226 30006 ft 490 kts 338°
2026-05-07 16:50 -35.34435 174.00843 30357 ft 490 kts 338°
2026-05-07 16:50 -35.31218 173.99460 30619 ft 490 kts 338°
2026-05-07 16:51 -35.27993 173.98075 30866 ft 491 kts 338°
2026-05-07 16:51 -35.24811 173.96709 31149 ft 491 kts 338°
2026-05-07 16:51 -35.21587 173.95328 31429 ft 491 kts 338°
2026-05-07 16:51 -35.18360 173.93945 31683 ft 492 kts 338°
2026-05-07 16:52 -35.15129 173.92561 31916 ft 492 kts 338°
2026-05-07 16:52 -35.11892 173.91177 32175 ft 492 kts 338°
2026-05-07 16:52 -35.08663 173.89797 32444 ft 492 kts 338°
2026-05-07 16:52 -35.05433 173.88418 32690 ft 492 kts 338°
2026-05-07 16:53 -35.02194 173.87036 32924 ft 493 kts 338°
2026-05-07 16:53 -34.98956 173.85656 33194 ft 492 kts 338°
2026-05-07 16:53 -34.95723 173.84280 33435 ft 492 kts 338°
2026-05-07 16:53 -34.92493 173.82905 33683 ft 492 kts 338°
2026-05-07 16:54 -34.89268 173.81534 33915 ft 492 kts 338°
2026-05-07 16:54 -34.86040 173.80162 34150 ft 491 kts 338°
2026-05-07 16:54 -34.82814 173.78793 34364 ft 490 kts 338°
2026-05-07 16:54 -34.79597 173.77428 34559 ft 490 kts 338°
2026-05-07 16:55 -34.76381 173.76066 34752 ft 489 kts 338°
2026-05-07 16:55 -34.73167 173.74705 34952 ft 489 kts 338°
2026-05-07 16:55 -34.69957 173.73347 35131 ft 488 kts 338°
2026-05-07 16:55 -34.66752 173.71992 35309 ft 488 kts 338°
2026-05-07 16:56 -34.63541 173.70635 35469 ft 488 kts 338°
2026-05-07 16:56 -34.60339 173.69284 35646 ft 487 kts 338°
2026-05-07 16:56 -34.53944 173.66589 35969 ft 487 kts 338°
2026-05-07 16:57 -34.50743 173.65241 36079 ft 487 kts 338°
2026-05-07 16:57 -34.47527 173.63887 36102 ft 490 kts 338°
2026-05-07 16:57 -34.41059 173.61169 36098 ft 493 kts 338°
2026-05-07 16:58 -34.34576 173.58450 36097 ft 493 kts 338°
2026-05-07 16:58 -34.28100 173.55738 36099 ft 492 kts 338°
2026-05-07 16:59 -34.21665 173.53048 36098 ft 492 kts 338°
2026-05-07 16:59 -34.15147 173.50327 36095 ft 493 kts 338°
2026-05-07 17:00 -34.08668 173.47627 36096 ft 493 kts 338°
2026-05-07 17:00 -34.02230 173.44949 36094 ft 493 kts 338°
2026-05-07 17:01 -33.95747 173.42257 36097 ft 493 kts 338°
2026-05-07 17:01 -33.89270 173.39537 36093 ft 492 kts 336°
2026-05-07 17:02 -33.83187 173.35882 36095 ft 488 kts 328°
2026-05-07 17:02 -33.77322 173.31798 36089 ft 488 kts 326°
2026-05-07 17:03 -33.71475 173.27675 36092 ft 487 kts 327°
2026-05-07 17:03 -33.65607 173.23595 36089 ft 487 kts 327°
2026-05-07 17:04 -33.59727 173.19546 36087 ft 487 kts 327°
2026-05-07 17:04 -33.53844 173.15510 36088 ft 487 kts 327°
2026-05-07 17:05 -33.47975 173.11497 36105 ft 482 kts 324°
2026-05-07 17:05 -33.45089 173.09537 36086 ft 471 kts 323°
2026-05-07 17:05 -33.42269 173.07615 36082 ft 464 kts 323°
2026-05-07 17:06 -33.36688 173.03792 36084 ft 461 kts 323°
2026-05-07 17:06 -33.31125 172.99980 36083 ft 461 kts 323°
2026-05-07 17:07 -33.25557 172.96179 36083 ft 461 kts 323°
2026-05-07 17:07 -33.19986 172.92387 36081 ft 461 kts 323°
2026-05-07 17:08 -33.14414 172.88601 36080 ft 461 kts 323°
2026-05-07 17:08 -33.09785 172.85461 36084 ft 461 kts 323°
2026-05-07 17:09 -33.03274 172.81049 36075 ft 461 kts 323°
2026-05-07 17:09 -32.98643 172.77916 36074 ft 460 kts 323°
2026-05-07 17:10 -32.92170 172.73543 36074 ft 460 kts 323°
2026-05-07 17:10 -32.87500 172.70393 36073 ft 460 kts 323°
2026-05-07 17:11 -32.81934 172.66643 36071 ft 460 kts 323°
2026-05-07 17:11 -32.76369 172.62899 36069 ft 460 kts 323°
2026-05-07 17:12 -32.70844 172.59188 36064 ft 460 kts 323°
2026-05-07 17:12 -32.65273 172.55450 36070 ft 460 kts 323°
2026-05-07 17:13 -32.59705 172.51720 36069 ft 460 kts 323°
2026-05-07 17:13 -32.54134 172.47994 36070 ft 460 kts 323°
2026-05-07 17:14 -32.48559 172.44271 36072 ft 460 kts 323°
2026-05-07 17:14 -32.42986 172.40555 36070 ft 460 kts 323°
2026-05-07 17:15 -32.37406 172.36839 36071 ft 460 kts 323°
2026-05-07 17:15 -32.31827 172.33129 36068 ft 460 kts 323°
2026-05-07 17:16 -32.26246 172.29423 36069 ft 460 kts 323°
2026-05-07 17:16 -32.20670 172.25726 36069 ft 460 kts 323°
2026-05-07 17:17 -32.15096 172.22035 36070 ft 459 kts 322°
2026-05-07 17:17 -32.09517 172.18347 36069 ft 459 kts 322°
2026-05-07 17:18 -32.03941 172.14666 36068 ft 459 kts 322°
2026-05-07 17:18 -31.98363 172.10988 36066 ft 459 kts 322°
2026-05-07 17:19 -31.92786 172.07316 36063 ft 459 kts 322°
2026-05-07 17:19 -31.87211 172.03650 36065 ft 459 kts 322°
2026-05-07 17:20 -31.81633 171.99987 36072 ft 459 kts 322°
2026-05-07 17:20 -31.76062 171.96334 36062 ft 459 kts 322°
2026-05-07 17:21 -31.70485 171.92681 36062 ft 459 kts 322°
2026-05-07 17:21 -31.64908 171.89033 36062 ft 459 kts 322°
2026-05-07 17:22 -31.59334 171.85393 36060 ft 459 kts 322°
2026-05-07 17:22 -31.53758 171.81758 36064 ft 458 kts 322°
2026-05-07 17:23 -31.48180 171.78127 36062 ft 458 kts 322°
2026-05-07 17:23 -31.42605 171.74502 36060 ft 458 kts 322°
2026-05-07 17:24 -31.37032 171.70883 36058 ft 458 kts 322°
2026-05-07 17:24 -31.31485 171.67285 36060 ft 459 kts 322°
2026-05-07 17:25 -31.25906 171.63672 36059 ft 459 kts 322°
2026-05-07 17:25 -31.20318 171.60058 36057 ft 459 kts 322°
2026-05-07 17:26 -31.14729 171.56448 36056 ft 459 kts 322°
2026-05-07 17:26 -31.09133 171.52838 36058 ft 460 kts 322°
2026-05-07 17:27 -31.03534 171.49233 36067 ft 460 kts 322°
2026-05-07 17:27 -30.97927 171.45626 36058 ft 460 kts 323°
2026-05-07 17:28 -30.92319 171.42024 36056 ft 460 kts 323°
2026-05-07 17:28 -30.86706 171.38424 36055 ft 460 kts 323°
2026-05-07 17:29 -30.81096 171.34830 36053 ft 460 kts 322°
2026-05-07 17:29 -30.75485 171.31241 36054 ft 460 kts 322°
2026-05-07 17:30 -30.69878 171.27659 36052 ft 460 kts 322°
2026-05-07 17:30 -30.64272 171.24083 36047 ft 460 kts 322°
2026-05-07 17:31 -30.58666 171.20511 36044 ft 459 kts 322°
2026-05-07 17:31 -30.53062 171.16945 36044 ft 460 kts 322°
2026-05-07 17:32 -30.47453 171.13381 36045 ft 460 kts 322°
2026-05-07 17:32 -30.41843 171.09820 36045 ft 460 kts 322°
2026-05-07 17:33 -30.36275 171.06291 36044 ft 459 kts 322°
2026-05-07 17:33 -30.30664 171.02739 36044 ft 459 kts 322°
2026-05-07 17:34 -30.25055 170.99193 36045 ft 459 kts 322°
2026-05-07 17:34 -30.19445 170.95651 36046 ft 460 kts 322°
2026-05-07 17:35 -30.13832 170.92112 36045 ft 460 kts 322°
2026-05-07 17:35 -30.08218 170.88577 36046 ft 460 kts 322°
2026-05-07 17:36 -30.02597 170.85043 36044 ft 460 kts 322°
2026-05-07 17:36 -29.96975 170.81512 36040 ft 460 kts 322°
2026-05-07 17:37 -29.91353 170.77987 36045 ft 460 kts 322°
2026-05-07 17:37 -29.85723 170.74460 36043 ft 460 kts 322°
2026-05-07 17:38 -29.80089 170.70936 36043 ft 461 kts 322°
2026-05-07 17:38 -29.74461 170.67421 36042 ft 461 kts 322°
2026-05-07 17:39 -29.68825 170.63905 36045 ft 461 kts 322°
2026-05-07 17:39 -29.63189 170.60394 36044 ft 461 kts 322°
2026-05-07 17:40 -29.57591 170.56910 36044 ft 460 kts 322°
2026-05-07 17:40 -29.51958 170.53410 36044 ft 460 kts 322°
2026-05-07 17:41 -29.46324 170.49913 36045 ft 460 kts 322°
2026-05-07 17:41 -29.40693 170.46423 36043 ft 460 kts 322°
2026-05-07 17:42 -29.35063 170.42937 36039 ft 460 kts 322°
2026-05-07 17:42 -29.29434 170.39457 36040 ft 460 kts 322°
2026-05-07 17:43 -29.23809 170.35984 36042 ft 459 kts 322°
2026-05-07 17:43 -29.18186 170.32516 36040 ft 459 kts 322°
2026-05-07 17:44 -29.12563 170.29052 36041 ft 459 kts 322°
2026-05-07 17:44 -29.06943 170.25594 36039 ft 458 kts 322°
2026-05-07 17:45 -29.01328 170.22144 36038 ft 458 kts 322°
2026-05-07 17:45 -28.95709 170.18696 36037 ft 458 kts 322°
2026-05-07 17:46 -28.90098 170.15256 36041 ft 458 kts 322°
2026-05-07 17:46 -28.84485 170.11821 36036 ft 458 kts 322°
2026-05-07 17:47 -28.78873 170.08389 36036 ft 458 kts 322°
2026-05-07 17:47 -28.73260 170.04962 36041 ft 457 kts 321°
2026-05-07 17:48 -28.67654 170.01543 36038 ft 457 kts 321°
2026-05-07 17:48 -28.62080 169.98147 36036 ft 457 kts 321°
2026-05-07 17:49 -28.56472 169.94734 36034 ft 457 kts 321°
2026-05-07 17:49 -28.50855 169.91321 36031 ft 458 kts 321°
2026-05-07 17:50 -28.45235 169.87909 36029 ft 458 kts 321°
2026-05-07 17:50 -28.39610 169.84499 36034 ft 458 kts 322°
2026-05-07 17:51 -28.33983 169.81092 36032 ft 459 kts 322°
2026-05-07 17:51 -28.28342 169.77681 36033 ft 459 kts 322°
2026-05-07 17:52 -28.22698 169.74272 36033 ft 460 kts 322°
2026-05-07 17:52 -28.17048 169.70863 36034 ft 460 kts 322°
2026-05-07 17:53 -28.11389 169.67453 36033 ft 461 kts 322°
2026-05-07 17:53 -28.05723 169.64044 36033 ft 461 kts 322°
2026-05-07 17:54 -28.00573 169.60948 36031 ft 462 kts 322°
2026-05-07 17:55 -27.89614 169.54372 36033 ft 462 kts 322°
2026-05-07 17:55 -27.83937 169.50972 36035 ft 462 kts 322°
2026-05-07 17:56 -27.78302 169.47601 36033 ft 461 kts 322°
2026-05-07 17:56 -27.72628 169.44211 36028 ft 461 kts 321°
2026-05-07 17:57 -27.67878 169.41375 36032 ft 461 kts 321°
2026-05-07 17:57 -27.61295 169.37450 36032 ft 461 kts 321°
2026-05-07 17:58 -27.55633 169.34078 36031 ft 460 kts 321°
2026-05-07 17:58 -27.49969 169.30709 36041 ft 460 kts 321°
2026-05-07 17:59 -27.44308 169.27346 36033 ft 460 kts 321°
2026-05-07 17:59 -27.38648 169.23988 36039 ft 460 kts 321°
2026-05-07 18:00 -27.32991 169.20635 36032 ft 460 kts 321°
2026-05-07 18:00 -27.27342 169.17291 36035 ft 459 kts 321°
2026-05-07 18:01 -27.21677 169.13941 36037 ft 459 kts 321°
2026-05-07 18:01 -27.16022 169.10600 36035 ft 459 kts 321°
2026-05-07 18:02 -27.07535 169.05595 36034 ft 459 kts 321°
2026-05-07 18:03 -27.01878 169.02265 36033 ft 459 kts 321°
2026-05-07 18:03 -26.96212 168.98934 36033 ft 460 kts 321°
2026-05-07 18:04 -26.90547 168.95608 36033 ft 460 kts 321°
2026-05-07 18:04 -26.84885 168.92288 36034 ft 459 kts 321°
2026-05-07 18:05 -26.79219 168.88969 36035 ft 459 kts 321°
2026-05-07 18:05 -26.73557 168.85655 36032 ft 459 kts 322°
2026-05-07 18:06 -26.67893 168.82344 36033 ft 459 kts 322°
2026-05-07 18:06 -26.62230 168.79037 36032 ft 459 kts 321°
2026-05-07 18:07 -26.56604 168.75756 36038 ft 459 kts 322°
2026-05-07 18:07 -26.50945 168.72459 36034 ft 459 kts 322°
2026-05-07 18:08 -26.45276 168.69160 36036 ft 459 kts 322°
2026-05-07 18:08 -26.39612 168.65867 36034 ft 459 kts 322°
2026-05-07 18:09 -26.33945 168.62577 36036 ft 459 kts 322°
2026-05-07 18:09 -26.28282 168.59293 36036 ft 459 kts 322°
2026-05-07 18:10 -26.22614 168.56009 36036 ft 459 kts 322°
2026-05-07 18:10 -26.16946 168.52729 36037 ft 459 kts 322°
2026-05-07 18:11 -26.11273 168.49449 36036 ft 459 kts 322°
2026-05-07 18:11 -26.05599 168.46173 36035 ft 459 kts 322°
2026-05-07 18:12 -25.99924 168.42900 36034 ft 460 kts 322°
2026-05-07 18:12 -25.94251 168.39632 36033 ft 460 kts 322°
2026-05-07 18:13 -25.88599 168.36379 36035 ft 460 kts 322°
2026-05-07 18:13 -25.82916 168.33111 36039 ft 460 kts 322°
2026-05-07 18:14 -25.77228 168.29845 36038 ft 460 kts 322°
2026-05-07 18:14 -25.71540 168.26582 36040 ft 461 kts 322°
2026-05-07 18:15 -25.65841 168.23316 36037 ft 461 kts 322°
2026-05-07 18:15 -25.60146 168.20056 36035 ft 461 kts 322°
2026-05-07 18:16 -25.54445 168.16797 36033 ft 461 kts 322°
2026-05-07 18:16 -25.49701 168.14087 36033 ft 461 kts 322°
2026-05-07 18:17 -25.43958 168.10809 36032 ft 461 kts 322°
2026-05-07 18:17 -25.38287 168.07577 36033 ft 462 kts 323°
2026-05-07 18:18 -25.31610 168.03774 36033 ft 462 kts 323°
2026-05-07 18:18 -25.26863 168.01074 36029 ft 462 kts 323°
2026-05-07 18:19 -25.21143 167.97824 36032 ft 462 kts 323°
2026-05-07 18:19 -25.15417 167.94574 36028 ft 463 kts 323°
2026-05-07 18:20 -25.09692 167.91328 36030 ft 463 kts 323°
2026-05-07 18:20 -25.03963 167.88083 36031 ft 463 kts 323°
2026-05-07 18:21 -24.98228 167.84838 36033 ft 463 kts 323°
2026-05-07 18:21 -24.92489 167.81594 36026 ft 463 kts 323°
2026-05-07 18:22 -24.86750 167.78354 36023 ft 464 kts 323°
2026-05-07 18:22 -24.81002 167.75112 36028 ft 464 kts 323°
2026-05-07 18:23 -24.75252 167.71876 36028 ft 464 kts 323°
2026-05-07 18:23 -24.69494 167.68643 36025 ft 465 kts 323°
2026-05-07 18:24 -24.63731 167.65411 36027 ft 465 kts 323°
2026-05-07 18:24 -24.57967 167.62181 36024 ft 465 kts 323°
2026-05-07 18:25 -24.52193 167.58949 36023 ft 466 kts 323°
2026-05-07 18:25 -24.46422 167.55722 36025 ft 466 kts 323°
2026-05-07 18:26 -24.40639 167.52492 36027 ft 466 kts 323°
2026-05-07 18:26 -24.34854 167.49263 36024 ft 467 kts 323°
2026-05-07 18:27 -24.29066 167.46036 36025 ft 467 kts 323°
2026-05-07 18:27 -24.23274 167.42811 36026 ft 467 kts 324°
2026-05-07 18:28 -24.17479 167.39587 36028 ft 467 kts 324°
2026-05-07 18:28 -24.11676 167.36362 36025 ft 468 kts 324°
2026-05-07 18:29 -24.05909 167.33161 36022 ft 468 kts 324°
2026-05-07 18:29 -24.00097 167.29937 36027 ft 468 kts 324°
2026-05-07 18:30 -23.94284 167.26716 36027 ft 469 kts 324°
2026-05-07 18:30 -23.88465 167.23496 36026 ft 469 kts 324°
2026-05-07 18:31 -23.82648 167.20280 36027 ft 469 kts 324°
2026-05-07 18:31 -23.76823 167.17062 36032 ft 469 kts 324°
2026-05-07 18:32 -23.70995 167.13846 36017 ft 470 kts 324°
2026-05-07 18:32 -23.65164 167.10632 36027 ft 470 kts 324°
2026-05-07 18:33 -23.59326 167.07417 36027 ft 470 kts 324°
2026-05-07 18:33 -23.53488 167.04205 36026 ft 470 kts 324°
2026-05-07 18:34 -23.47645 167.00994 36024 ft 470 kts 324°
2026-05-07 18:34 -23.41802 166.97786 36022 ft 471 kts 324°
2026-05-07 18:35 -23.35951 166.94576 36022 ft 471 kts 324°
2026-05-07 18:35 -23.30101 166.91371 36020 ft 471 kts 324°
2026-05-07 18:36 -23.24245 166.88165 36019 ft 471 kts 324°
2026-05-07 18:36 -23.18388 166.84962 36020 ft 471 kts 325°
2026-05-07 18:37 -23.12526 166.81760 36017 ft 472 kts 325°
2026-05-07 18:37 -23.06659 166.78558 36019 ft 472 kts 325°
2026-05-07 18:38 -23.00799 166.75363 36017 ft 472 kts 325°
2026-05-07 18:38 -22.94922 166.72161 36011 ft 472 kts 325°
2026-05-07 18:39 -22.89049 166.68965 36012 ft 472 kts 325°
2026-05-07 18:39 -22.83168 166.65768 36014 ft 473 kts 325°
2026-05-07 18:40 -22.77326 166.62594 36008 ft 473 kts 325°
2026-05-07 18:40 -22.71439 166.59400 36004 ft 473 kts 325°
2026-05-07 18:41 -22.65552 166.56209 36004 ft 473 kts 325°
2026-05-07 18:41 -22.59659 166.53017 36003 ft 474 kts 325°
2026-05-07 18:42 -22.53763 166.49828 36001 ft 474 kts 325°
2026-05-07 18:42 -22.47866 166.46640 36001 ft 474 kts 326°
2026-05-07 18:43 -22.41965 166.43454 36000 ft 474 kts 326°
2026-05-07 18:43 -22.36063 166.40269 36002 ft 474 kts 326°
2026-05-07 18:44 -22.30156 166.37086 36002 ft 474 kts 326°
2026-05-07 18:44 -22.24248 166.33905 36008 ft 475 kts 326°
2026-05-07 18:45 -22.18339 166.30726 36013 ft 475 kts 326°
2026-05-07 18:45 -22.12425 166.27548 36019 ft 475 kts 326°
2026-05-07 18:46 -22.06509 166.24371 36020 ft 475 kts 326°
2026-05-07 18:46 -22.00590 166.21198 36022 ft 475 kts 326°
2026-05-07 18:47 -21.94660 166.18037 36018 ft 476 kts 326°
2026-05-07 18:47 -21.88727 166.14885 36016 ft 476 kts 326°
2026-05-07 18:48 -21.82785 166.11733 36015 ft 476 kts 326°
2026-05-07 18:48 -21.76852 166.08586 36012 ft 476 kts 326°
2026-05-07 18:49 -21.70908 166.05436 36007 ft 476 kts 326°
2026-05-07 18:49 -21.64973 166.02295 36014 ft 476 kts 326°
2026-05-07 18:50 -21.59017 165.99145 36018 ft 477 kts 326°
2026-05-07 18:50 -21.53101 165.96017 36019 ft 477 kts 327°
2026-05-07 18:51 -21.47110 165.92853 36018 ft 477 kts 327°
2026-05-07 18:51 -21.41187 165.89730 36010 ft 477 kts 326°
2026-05-07 18:52 -21.35218 165.86582 36015 ft 478 kts 327°
2026-05-07 18:52 -21.29251 165.83441 36017 ft 478 kts 327°
2026-05-07 18:53 -21.23289 165.80305 36017 ft 478 kts 327°
2026-05-07 18:53 -21.17313 165.77164 36016 ft 478 kts 327°
2026-05-07 18:54 -21.11337 165.74025 36016 ft 478 kts 327°
2026-05-07 18:54 -21.05360 165.70889 36015 ft 479 kts 327°
2026-05-07 18:55 -20.99377 165.67753 36014 ft 479 kts 327°
2026-05-07 18:55 -20.93390 165.64617 36012 ft 479 kts 327°
2026-05-07 18:56 -20.87398 165.61482 36007 ft 479 kts 327°
2026-05-07 18:56 -20.81402 165.58347 36009 ft 480 kts 327°
2026-05-07 18:57 -20.75408 165.55217 36003 ft 480 kts 327°
2026-05-07 18:57 -20.69405 165.52084 36008 ft 480 kts 327°
2026-05-07 18:58 -20.63401 165.48953 36004 ft 480 kts 327°
2026-05-07 18:58 -20.57393 165.45823 36012 ft 481 kts 327°
2026-05-07 18:59 -20.51382 165.42695 35997 ft 481 kts 327°
2026-05-07 18:59 -20.45365 165.39566 36001 ft 481 kts 327°
2026-05-07 19:00 -20.39347 165.36439 35999 ft 481 kts 327°
2026-05-07 19:00 -20.33371 165.33338 36002 ft 481 kts 328°
2026-05-07 19:01 -20.27352 165.30216 36000 ft 481 kts 328°
2026-05-07 19:01 -20.21331 165.27096 36008 ft 481 kts 328°
2026-05-07 19:02 -20.15302 165.23984 35998 ft 482 kts 328°
2026-05-07 19:02 -20.09270 165.20880 35995 ft 482 kts 328°
2026-05-07 19:03 -20.03232 165.17776 35999 ft 482 kts 328°
2026-05-07 19:03 -19.97196 165.14674 36002 ft 482 kts 328°
2026-05-07 19:04 -19.91158 165.11574 36001 ft 482 kts 328°
2026-05-07 19:04 -19.86138 165.08998 36001 ft 482 kts 328°
2026-05-07 19:05 -19.80100 165.05903 35996 ft 482 kts 328°
2026-05-07 19:05 -19.74055 165.02806 36002 ft 482 kts 328°
2026-05-07 19:06 -19.68017 164.99715 35994 ft 482 kts 328°
2026-05-07 19:06 -19.58948 164.95078 35997 ft 482 kts 328°
2026-05-07 19:07 -19.52902 164.91990 35991 ft 482 kts 328°
2026-05-07 19:07 -19.46855 164.88904 35992 ft 482 kts 328°
2026-05-07 19:08 -19.40810 164.85822 35994 ft 482 kts 328°
2026-05-07 19:08 -19.34760 164.82740 35992 ft 482 kts 328°
2026-05-07 19:09 -19.28710 164.79659 35990 ft 483 kts 328°
2026-05-07 19:09 -19.22655 164.76580 35987 ft 483 kts 328°
2026-05-07 19:10 -19.16596 164.73501 35987 ft 483 kts 328°
2026-05-07 19:10 -19.10542 164.70426 35989 ft 483 kts 328°
2026-05-07 19:11 -19.04489 164.67355 35983 ft 483 kts 328°
2026-05-07 19:11 -18.98428 164.64282 35985 ft 483 kts 329°
2026-05-07 19:12 -18.92409 164.61233 35981 ft 483 kts 329°
2026-05-07 19:12 -18.86351 164.58167 35980 ft 483 kts 329°
2026-05-07 19:13 -18.80290 164.55102 35983 ft 483 kts 329°
2026-05-07 19:13 -18.74229 164.52038 35982 ft 483 kts 329°
2026-05-07 19:14 -18.68169 164.48979 35981 ft 483 kts 329°
2026-05-07 19:14 -18.62104 164.45918 35981 ft 483 kts 329°
2026-05-07 19:15 -18.56038 164.42860 35979 ft 483 kts 329°
2026-05-07 19:15 -18.49972 164.39805 35980 ft 483 kts 329°
2026-05-07 19:16 -18.43904 164.36750 35974 ft 483 kts 329°
2026-05-07 19:16 -18.37836 164.33698 35975 ft 483 kts 329°
2026-05-07 19:17 -18.31765 164.30647 35976 ft 483 kts 329°
2026-05-07 19:17 -18.25694 164.27599 35971 ft 484 kts 329°
2026-05-07 19:18 -18.19618 164.24550 35973 ft 484 kts 329°
2026-05-07 19:18 -18.13538 164.21502 35964 ft 484 kts 329°
2026-05-07 19:19 -18.07459 164.18456 35975 ft 484 kts 329°
2026-05-07 19:19 -18.01381 164.15414 35964 ft 484 kts 329°
2026-05-07 19:20 -17.95345 164.12395 35972 ft 484 kts 329°
2026-05-07 19:20 -17.89270 164.09358 35969 ft 484 kts 329°
2026-05-07 19:21 -17.83146 164.06299 35964 ft 484 kts 329°
2026-05-07 19:21 -17.77070 164.03267 35968 ft 484 kts 329°
2026-05-07 19:22 -17.71029 164.00254 35968 ft 484 kts 329°
2026-05-07 19:22 -17.64949 163.97224 35965 ft 484 kts 329°
2026-05-07 19:23 -17.58869 163.94197 35964 ft 484 kts 329°
2026-05-07 19:23 -17.52785 163.91169 35961 ft 484 kts 329°
2026-05-07 19:24 -17.46699 163.88143 35959 ft 484 kts 329°
2026-05-07 19:24 -17.40614 163.85120 35963 ft 484 kts 330°
2026-05-07 19:25 -17.34528 163.82098 35961 ft 484 kts 330°
2026-05-07 19:25 -17.28436 163.79076 35957 ft 484 kts 330°
2026-05-07 19:26 -17.22352 163.76060 35956 ft 484 kts 330°
2026-05-07 19:26 -17.16263 163.73045 35957 ft 484 kts 330°
2026-05-07 19:27 -17.10169 163.70028 35957 ft 484 kts 330°
2026-05-07 19:27 -17.04081 163.67016 35954 ft 485 kts 330°
2026-05-07 19:28 -16.97981 163.64001 35956 ft 485 kts 330°
2026-05-07 19:28 -16.91888 163.60991 35957 ft 485 kts 330°
2026-05-07 19:29 -16.85789 163.57981 35958 ft 485 kts 330°
2026-05-07 19:29 -16.79685 163.54970 35955 ft 485 kts 330°
2026-05-07 19:30 -16.73623 163.51982 35953 ft 485 kts 330°
2026-05-07 19:30 -16.67520 163.48977 35948 ft 485 kts 330°
2026-05-07 19:31 -16.61407 163.45968 35947 ft 486 kts 330°
2026-05-07 19:31 -16.55296 163.42962 35945 ft 486 kts 330°
2026-05-07 19:32 -16.49180 163.39956 35946 ft 486 kts 330°
2026-05-07 19:32 -16.43059 163.36950 35945 ft 487 kts 330°
2026-05-07 19:33 -16.36932 163.33943 35945 ft 487 kts 331°
2026-05-07 19:33 -16.30804 163.30937 35945 ft 487 kts 331°
2026-05-07 19:34 -16.24669 163.27931 35943 ft 487 kts 331°
2026-05-07 19:34 -16.18535 163.24927 35944 ft 488 kts 331°
2026-05-07 19:35 -16.12390 163.21919 35944 ft 488 kts 331°
2026-05-07 19:35 -16.06243 163.18913 35939 ft 488 kts 331°
2026-05-07 19:36 -16.00103 163.15912 35941 ft 488 kts 331°
2026-05-07 19:36 -15.93959 163.12911 35938 ft 488 kts 331°
2026-05-07 19:37 -15.87809 163.09909 35936 ft 488 kts 331°
2026-05-07 19:37 -15.81661 163.06910 35933 ft 488 kts 331°
2026-05-07 19:38 -15.75553 163.03933 35935 ft 488 kts 331°
2026-05-07 19:38 -15.69401 163.00936 35935 ft 488 kts 331°
2026-05-07 19:39 -15.63247 162.97940 35935 ft 489 kts 331°
2026-05-07 19:39 -15.57095 162.94947 35933 ft 489 kts 331°
2026-05-07 19:40 -15.50933 162.91951 35933 ft 489 kts 332°
2026-05-07 19:40 -15.44774 162.88960 35931 ft 489 kts 332°
2026-05-07 19:41 -15.38615 162.85969 35930 ft 489 kts 332°
2026-05-07 19:41 -15.32454 162.82980 35931 ft 489 kts 332°
2026-05-07 19:42 -15.26296 162.79994 35931 ft 489 kts 332°
2026-05-07 19:42 -15.20128 162.77005 35929 ft 489 kts 332°
2026-05-07 19:43 -15.13959 162.74018 35928 ft 489 kts 332°
2026-05-07 19:43 -15.07791 162.71034 35928 ft 490 kts 332°
2026-05-07 19:44 -15.01620 162.68049 35928 ft 490 kts 332°
2026-05-07 19:44 -14.95449 162.65067 35928 ft 490 kts 332°
2026-05-07 19:45 -14.89274 162.62084 35927 ft 490 kts 332°
2026-05-07 19:45 -14.83136 162.59121 35923 ft 490 kts 332°
2026-05-07 19:46 -14.76914 162.56120 35923 ft 490 kts 332°
2026-05-07 19:46 -14.70769 162.53158 35922 ft 491 kts 332°
2026-05-07 19:47 -14.64584 162.50178 35922 ft 491 kts 332°
2026-05-07 19:47 -14.58393 162.47197 35923 ft 491 kts 332°
2026-05-07 19:48 -14.52199 162.44217 35921 ft 491 kts 332°
2026-05-07 19:48 -14.46008 162.41239 35921 ft 491 kts 332°
2026-05-07 19:49 -14.39814 162.38263 35922 ft 491 kts 332°
2026-05-07 19:49 -14.33613 162.35284 35918 ft 491 kts 332°
2026-05-07 19:50 -14.27410 162.32307 35919 ft 492 kts 332°
2026-05-07 19:50 -14.21212 162.29334 35919 ft 492 kts 332°
2026-05-07 19:51 -14.15002 162.26357 35920 ft 492 kts 332°
2026-05-07 19:51 -14.08798 162.23385 35918 ft 492 kts 332°
2026-05-07 19:52 -14.03638 162.20914 35920 ft 492 kts 332°
2026-05-07 19:52 -13.96420 162.17453 35914 ft 492 kts 332°
2026-05-07 19:53 -13.91222 162.14949 35918 ft 492 kts 332°
2026-05-07 19:53 -13.84007 162.11474 35919 ft 493 kts 332°
2026-05-07 19:54 -13.77797 162.08486 35919 ft 493 kts 332°
2026-05-07 19:54 -13.71581 162.05499 35915 ft 493 kts 332°
2026-05-07 19:55 -13.66373 162.02997 35915 ft 493 kts 332°
2026-05-07 19:55 -13.60157 162.00013 35915 ft 493 kts 332°
2026-05-07 19:56 -13.53978 161.97047 35917 ft 493 kts 332°
2026-05-07 19:56 -13.47756 161.94064 35918 ft 494 kts 332°
2026-05-07 19:57 -13.41527 161.91078 35916 ft 494 kts 332°
2026-05-07 19:57 -13.35300 161.88095 35911 ft 494 kts 332°
2026-05-07 19:58 -13.29072 161.85114 35909 ft 494 kts 332°
2026-05-07 19:58 -13.22842 161.82133 35911 ft 494 kts 332°
2026-05-07 19:59 -13.16610 161.79153 35912 ft 494 kts 333°
2026-05-07 19:59 -13.10379 161.76175 35910 ft 494 kts 333°
2026-05-07 20:00 -13.04148 161.73199 35909 ft 494 kts 333°
2026-05-07 20:00 -12.97913 161.70222 35909 ft 494 kts 333°
2026-05-07 20:01 -12.91682 161.67249 35907 ft 494 kts 333°
2026-05-07 20:01 -12.85451 161.64277 35915 ft 494 kts 333°
2026-05-07 20:02 -12.79217 161.61306 35914 ft 494 kts 333°
2026-05-07 20:02 -12.72983 161.58337 35905 ft 494 kts 333°
2026-05-07 20:03 -12.66754 161.55371 35908 ft 494 kts 333°
2026-05-07 20:03 -12.60519 161.52404 35908 ft 494 kts 333°
2026-05-07 20:04 -12.54286 161.49440 35906 ft 494 kts 333°
2026-05-07 20:04 -12.48054 161.46478 35907 ft 494 kts 333°
2026-05-07 20:05 -12.41817 161.43515 35905 ft 494 kts 333°
2026-05-07 20:05 -12.35575 161.40551 35906 ft 494 kts 333°
2026-05-07 20:06 -12.29337 161.37591 35911 ft 494 kts 333°
2026-05-07 20:06 -12.23097 161.34631 35905 ft 495 kts 333°
2026-05-07 20:07 -12.16855 161.31672 35908 ft 495 kts 333°
2026-05-07 20:07 -12.10651 161.28733 35902 ft 495 kts 333°
2026-05-07 20:08 -12.04406 161.25775 35900 ft 495 kts 333°
2026-05-07 20:08 -11.98158 161.22818 35905 ft 495 kts 333°
2026-05-07 20:09 -11.91908 161.19861 35903 ft 495 kts 334°
2026-05-07 20:10 -11.82535 161.15430 35900 ft 495 kts 334°
2026-05-07 20:10 -11.76280 161.12475 35901 ft 495 kts 334°
2026-05-07 20:11 -11.70025 161.09521 35900 ft 495 kts 334°
2026-05-07 20:11 -11.63769 161.06568 35903 ft 495 kts 334°
2026-05-07 20:12 -11.57513 161.03617 35902 ft 496 kts 334°
2026-05-07 20:12 -11.51250 161.00664 35895 ft 496 kts 334°
2026-05-07 20:13 -11.44989 160.97713 35899 ft 496 kts 334°
2026-05-07 20:13 -11.38727 160.94763 35893 ft 496 kts 334°
2026-05-07 20:14 -11.32460 160.91813 35893 ft 496 kts 334°
2026-05-07 20:14 -11.26196 160.88866 35899 ft 496 kts 334°
2026-05-07 20:15 -11.19973 160.85938 35898 ft 496 kts 334°
2026-05-07 20:15 -11.13710 160.82994 35896 ft 496 kts 334°
2026-05-07 20:16 -11.07443 160.80049 35899 ft 496 kts 334°
2026-05-07 20:16 -11.01178 160.77107 35898 ft 496 kts 334°
2026-05-07 20:17 -10.94908 160.74164 35899 ft 496 kts 334°
2026-05-07 20:17 -10.88642 160.71230 35897 ft 496 kts 334°
2026-05-07 20:18 -10.82369 160.68298 35890 ft 496 kts 334°
2026-05-07 20:18 -10.76096 160.65367 35892 ft 496 kts 334°
2026-05-07 20:19 -10.69824 160.62438 35890 ft 496 kts 334°
2026-05-07 20:19 -10.63550 160.59507 35898 ft 496 kts 334°
2026-05-07 20:20 -10.57280 160.56580 35888 ft 496 kts 334°
2026-05-07 20:20 -10.51000 160.53651 35886 ft 497 kts 334°
2026-05-07 20:21 -10.44720 160.50723 35898 ft 497 kts 334°
2026-05-07 20:21 -10.38437 160.47795 35895 ft 497 kts 334°
2026-05-07 20:22 -10.32192 160.44887 35883 ft 497 kts 334°
2026-05-07 20:22 -10.25904 160.41960 35897 ft 497 kts 334°
2026-05-07 20:23 -10.19611 160.39032 35898 ft 497 kts 334°
2026-05-07 20:23 -10.13317 160.36105 35884 ft 498 kts 334°
2026-05-07 20:24 -10.07022 160.33181 35902 ft 498 kts 334°
2026-05-07 20:24 -10.00718 160.30252 35905 ft 498 kts 334°
2026-05-07 20:25 -9.94414 160.27324 35909 ft 498 kts 334°
2026-05-07 20:25 -9.88107 160.24397 35912 ft 499 kts 334°
2026-05-07 20:26 -9.81795 160.21468 35912 ft 499 kts 334°
2026-05-07 20:26 -9.75484 160.18542 35911 ft 499 kts 334°
2026-05-07 20:27 -9.69167 160.15614 35905 ft 499 kts 334°
2026-05-07 20:27 -9.62852 160.12685 35897 ft 499 kts 334°
2026-05-07 20:28 -9.56535 160.09759 35889 ft 499 kts 334°
2026-05-07 20:28 -9.50259 160.06855 35885 ft 499 kts 334°
2026-05-07 20:29 -9.43967 160.03869 35882 ft 499 kts 330°
2026-05-07 20:29 -9.38000 160.00289 35884 ft 499 kts 327°
2026-05-07 20:30 -9.32113 159.96570 35884 ft 498 kts 327°
2026-05-07 20:30 -9.26247 159.92834 35886 ft 498 kts 327°
2026-05-07 20:31 -9.20371 159.89108 35884 ft 498 kts 327°
2026-05-07 20:31 -9.14492 159.85393 35885 ft 498 kts 327°
2026-05-07 20:32 -9.08613 159.81683 35884 ft 498 kts 327°
2026-05-07 20:32 -9.02731 159.77971 35881 ft 498 kts 327°
2026-05-07 20:33 -8.96853 159.74263 35881 ft 498 kts 327°
2026-05-07 20:33 -8.90968 159.70552 35880 ft 498 kts 327°
2026-05-07 20:34 -8.85085 159.66844 35882 ft 499 kts 327°
2026-05-07 20:34 -8.79193 159.63133 35879 ft 499 kts 327°
2026-05-07 20:35 -8.73299 159.59421 35882 ft 499 kts 327°
2026-05-07 20:35 -8.67403 159.55709 35882 ft 499 kts 327°
2026-05-07 20:36 -8.61503 159.51996 35884 ft 500 kts 327°
2026-05-07 20:36 -8.55599 159.48282 35884 ft 500 kts 327°
2026-05-07 20:37 -8.49694 159.44569 35885 ft 500 kts 328°
2026-05-07 20:37 -8.43781 159.40853 35885 ft 501 kts 328°
2026-05-07 20:38 -8.37903 159.37160 35887 ft 501 kts 328°
2026-05-07 20:38 -8.31983 159.33441 35886 ft 501 kts 328°
2026-05-07 20:39 -8.26059 159.29723 35886 ft 502 kts 328°
2026-05-07 20:39 -8.20131 159.26002 35885 ft 502 kts 328°
2026-05-07 20:40 -8.14204 159.22283 35885 ft 502 kts 328°
2026-05-07 20:40 -8.08273 159.18564 35888 ft 502 kts 328°
2026-05-07 20:41 -8.02339 159.14844 35885 ft 502 kts 328°
2026-05-07 20:41 -7.96409 159.11127 35884 ft 502 kts 328°
2026-05-07 20:42 -7.91477 159.08035 35884 ft 502 kts 328°
2026-05-07 20:42 -7.85796 159.04476 35884 ft 502 kts 328°
2026-05-07 20:43 -7.79938 159.00807 35885 ft 502 kts 328°
2026-05-07 20:43 -7.74002 158.97091 35883 ft 502 kts 328°
2026-05-07 20:44 -7.68065 158.93375 35883 ft 502 kts 328°
2026-05-07 20:44 -7.62124 158.89659 35885 ft 502 kts 329°
2026-05-07 20:45 -7.56186 158.85946 35885 ft 503 kts 329°
2026-05-07 20:45 -7.50240 158.82228 35885 ft 503 kts 329°
2026-05-07 20:46 -7.44341 158.78539 35883 ft 502 kts 329°
2026-05-07 20:46 -7.38401 158.74828 35884 ft 502 kts 329°
2026-05-07 20:47 -7.32459 158.71118 35883 ft 503 kts 329°
2026-05-07 20:47 -7.26514 158.67405 35884 ft 503 kts 329°
2026-05-07 20:48 -7.20566 158.63693 35887 ft 503 kts 329°
2026-05-07 20:48 -7.14613 158.59978 35887 ft 504 kts 329°
2026-05-07 20:49 -7.08655 158.56262 35884 ft 504 kts 329°
2026-05-07 20:49 -7.02691 158.52542 35887 ft 504 kts 329°
2026-05-07 20:50 -6.96728 158.48824 35889 ft 504 kts 329°
2026-05-07 20:50 -6.90760 158.45105 35889 ft 504 kts 329°
2026-05-07 20:51 -6.84802 158.41392 35887 ft 504 kts 329°
2026-05-07 20:51 -6.78831 158.37672 35887 ft 504 kts 329°
2026-05-07 20:52 -6.72865 158.33958 35886 ft 504 kts 329°
2026-05-07 20:52 -6.66902 158.30247 35887 ft 504 kts 329°
2026-05-07 20:53 -6.60933 158.26531 35890 ft 505 kts 329°
2026-05-07 20:53 -6.54959 158.22814 35891 ft 505 kts 329°
2026-05-07 20:54 -6.48982 158.19097 35889 ft 505 kts 329°
2026-05-07 20:54 -6.43003 158.15380 35890 ft 505 kts 329°
2026-05-07 20:55 -6.37024 158.11664 35890 ft 505 kts 329°
2026-05-07 20:55 -6.31044 158.07948 35889 ft 506 kts 329°
2026-05-07 20:56 -6.25058 158.04228 35889 ft 506 kts 329°
2026-05-07 20:56 -6.19069 158.00508 35891 ft 506 kts 329°
2026-05-07 20:57 -6.13126 157.96817 35889 ft 506 kts 329°
2026-05-07 20:57 -6.07138 157.93100 35890 ft 506 kts 329°
2026-05-07 20:58 -6.01154 157.89386 35890 ft 506 kts 329°
2026-05-07 20:58 -5.95167 157.85673 35889 ft 506 kts 329°
2026-05-07 20:59 -5.89177 157.81957 35890 ft 506 kts 329°
2026-05-07 20:59 -5.83187 157.78242 35888 ft 506 kts 329°
2026-05-07 21:00 -5.77199 157.74529 35891 ft 506 kts 329°
2026-05-07 21:00 -5.71208 157.70816 35890 ft 506 kts 329°
2026-05-07 21:01 -5.65217 157.67103 35893 ft 506 kts 329°
2026-05-07 21:01 -5.59219 157.63396 35892 ft 506 kts 329°
2026-05-07 21:02 -5.53210 157.59709 35890 ft 506 kts 330°
2026-05-07 21:02 -5.47204 157.56029 35885 ft 506 kts 330°
2026-05-07 21:03 -5.41186 157.52341 35887 ft 506 kts 330°
2026-05-07 21:03 -5.35177 157.48658 35890 ft 507 kts 330°
2026-05-07 21:04 -5.29158 157.44968 35883 ft 507 kts 330°
2026-05-07 21:04 -5.23144 157.41282 35885 ft 507 kts 330°
2026-05-07 21:05 -5.17167 157.37621 35888 ft 507 kts 330°
2026-05-07 21:05 -5.11147 157.33933 35886 ft 507 kts 330°
2026-05-07 21:06 -5.05121 157.30243 35887 ft 507 kts 330°
2026-05-07 21:06 -4.99096 157.26555 35887 ft 507 kts 330°
2026-05-07 21:07 -4.93070 157.22865 35883 ft 507 kts 330°
2026-05-07 21:07 -4.87046 157.19179 35885 ft 508 kts 330°
2026-05-07 21:08 -4.81014 157.15489 35884 ft 508 kts 330°
2026-05-07 21:08 -4.74983 157.11799 35884 ft 508 kts 330°
2026-05-07 21:09 -4.68950 157.08109 35888 ft 508 kts 330°
2026-05-07 21:09 -4.62915 157.04419 35886 ft 508 kts 330°
2026-05-07 21:10 -4.56880 157.00729 35883 ft 508 kts 330°
2026-05-07 21:10 -4.50839 156.97037 35883 ft 508 kts 330°
2026-05-07 21:11 -4.44800 156.93346 35885 ft 508 kts 330°
2026-05-07 21:11 -4.35741 156.87812 35883 ft 508 kts 330°
2026-05-07 21:12 -4.29704 156.84124 35880 ft 508 kts 330°
2026-05-07 21:12 -4.23664 156.80435 35880 ft 509 kts 330°
2026-05-07 21:13 -4.17619 156.76745 35880 ft 509 kts 330°
2026-05-07 21:13 -4.11578 156.73057 35882 ft 508 kts 330°
2026-05-07 21:14 -4.05536 156.69369 35884 ft 508 kts 330°
2026-05-07 21:14 -3.99538 156.65709 35882 ft 508 kts 330°
2026-05-07 21:15 -3.93497 156.62023 35882 ft 508 kts 330°
2026-05-07 21:15 -3.87460 156.58340 35882 ft 508 kts 330°
2026-05-07 21:16 -3.81417 156.54654 35881 ft 508 kts 330°
2026-05-07 21:16 -3.75375 156.50969 35882 ft 508 kts 330°
2026-05-07 21:17 -3.69335 156.47287 35883 ft 508 kts 330°
2026-05-07 21:17 -3.63297 156.43606 35882 ft 508 kts 330°
2026-05-07 21:18 -3.57258 156.39925 35880 ft 508 kts 330°
2026-05-07 21:18 -3.51215 156.36242 35879 ft 508 kts 330°
2026-05-07 21:19 -3.45179 156.32564 35879 ft 508 kts 330°
2026-05-07 21:19 -3.39138 156.28883 35881 ft 508 kts 330°
2026-05-07 21:20 -3.33103 156.25207 35882 ft 508 kts 330°
2026-05-07 21:20 -3.27073 156.21534 35881 ft 508 kts 330°
2026-05-07 21:21 -3.22050 156.18475 35881 ft 508 kts 330°
2026-05-07 21:21 -3.16014 156.14799 35881 ft 508 kts 330°
2026-05-07 21:22 -3.09970 156.11119 35882 ft 508 kts 330°
2026-05-07 21:22 -3.03930 156.07442 35881 ft 508 kts 330°
2026-05-07 21:23 -2.97887 156.03764 35880 ft 508 kts 330°
2026-05-07 21:23 -2.91842 156.00085 35877 ft 508 kts 330°
2026-05-07 21:24 -2.85798 155.96407 35878 ft 508 kts 330°
2026-05-07 21:24 -2.79758 155.92732 35880 ft 508 kts 330°
2026-05-07 21:25 -2.73715 155.89055 35882 ft 508 kts 330°
2026-05-07 21:25 -2.67675 155.85381 35882 ft 508 kts 330°
2026-05-07 21:26 -2.61632 155.81705 35879 ft 508 kts 330°
2026-05-07 21:26 -2.55635 155.78058 35879 ft 508 kts 330°
2026-05-07 21:27 -2.49601 155.74389 35879 ft 508 kts 330°
2026-05-07 21:27 -2.43567 155.70720 35880 ft 507 kts 330°
2026-05-07 21:28 -2.37535 155.67053 35875 ft 507 kts 330°
2026-05-07 21:28 -2.31504 155.63387 35877 ft 507 kts 330°
2026-05-07 21:29 -2.25476 155.59723 35877 ft 507 kts 330°
2026-05-07 21:29 -2.19456 155.56063 35878 ft 506 kts 330°
2026-05-07 21:30 -2.13438 155.52406 35880 ft 506 kts 330°
2026-05-07 21:30 -2.07426 155.48752 35874 ft 506 kts 330°
2026-05-07 21:31 -2.01419 155.45103 35875 ft 505 kts 330°
2026-05-07 21:31 -1.95410 155.41451 35876 ft 505 kts 330°
2026-05-07 21:32 -1.89404 155.37802 35876 ft 505 kts 329°
2026-05-07 21:32 -1.83402 155.34157 35877 ft 505 kts 329°
2026-05-07 21:33 -1.77395 155.30508 35877 ft 505 kts 329°